Flag for France Weather past 2 weeks in Nancy, France

Now
39 °F

Clear.


Feels Like: 34 °F
Forecast: 33 / 44 °F
Wind: 7 mph from Northwest

Location: Nancy / Ochey

Current Time: Mar 4, 2015 at 6:10:19 PM

Latest Report: Mar 4, 2015 at 5:30 PM


Visibility: N/A

Pressure: 30.36 "Hg

Humidity: 70%

Dew point: 30 °F

Location of NancyLocation

Historic Weather in Nancy — Graph

°F

Nancy temperature yesterday

Maximum temperature yesterday: 50 °F (at 3:00 PM)
Minimum temperature yesterday: 34 °F (at 1:00 AM)
Average temperature yesterday: 41 °F

Past Weeks' High & Low Weather Summary

 TemperatureHumidityPressure
High54 °F (Feb 20, 2:30 PM)100% (Feb 17, 11:30 PM)30.69 "Hg (Feb 17, 11:30 PM)
Low27 °F (Feb 19, 1:00 AM)42% (Feb 28, 4:30 PM)29.47 "Hg (Feb 23, 12:30 PM)
Average39 °F83%30.00 "Hg
* Reported Feb 17 5:00 PM — Mar 4 5:00 PM, Nancy, Weather by CustomWeather, © 2015

Note: Actual official high and low records may vary slightly from our data, if they occured in-between our weather recording intervals... More about our weather records

Advertising

Nancy weather history for previous 24 hours

 ConditionsComfort  
Time TempWeatherWind HumidityBarometerVisibility
5:00 PM
Wed, Mar 4
41 °FScattered clouds.12 mph70%30.36 "HgN/A
4:30 PM43 °FPartly sunny.10 mph61%30.36 "HgN/A
4:00 PM43 °FClear.8 mph66%30.36 "HgN/A
3:30 PM43 °FBroken clouds.9 mph61%30.33 "HgN/A
3:00 PM43 °FPartly sunny.9 mph66%30.33 "HgN/A
2:30 PM45 °FBroken clouds.10 mph66%30.33 "HgN/A
2:00 PM43 °FScattered clouds.14 mph71%30.36 "HgN/A
1:30 PM41 °FBroken clouds.10 mph70%30.36 "HgN/A
1:00 PM41 °FPartly sunny.9 mph66%30.36 "HgN/A
12:30 PM43 °FPassing clouds.8 mph66%30.36 "HgN/A
12:00 PM39 °FPartly sunny.9 mph75%30.36 "HgN/A
11:30 AM39 °FPartly sunny.9 mph81%30.36 "HgN/A
11:00 AM39 °FScattered clouds.7 mph81%30.36 "HgN/A
10:30 AM37 °FOvercast.8 mph93%30.33 "HgN/A
10:00 AM37 °FOvercast.7 mph87%30.33 "HgN/A
9:30 AM37 °FPartly sunny.8 mph87%30.33 "HgN/A
9:00 AM36 °FPartly sunny.7 mph93%30.33 "HgN/A
8:30 AM34 °FBroken clouds.5 mph100%30.30 "Hg4 mi
8:00 AM32 °FClear.3 mph100%30.30 "Hg4 mi
7:30 AM32 °FPassing clouds.6 mph100%30.30 "Hg4 mi
7:00 AM34 °FPassing clouds.8 mph100%30.27 "Hg4 mi
6:30 AM34 °FPartly cloudy.3 mph100%30.27 "Hg4 mi
6:00 AM34 °FPassing clouds.3 mph93%30.27 "Hg6 mi
5:30 AM34 °FPassing clouds.6 mph93%30.27 "HgN/A
5:00 AM36 °FPassing clouds.6 mph93%30.27 "HgN/A
4:30 AM36 °FPassing clouds.5 mph93%30.24 "HgN/A
4:00 AM36 °FOvercast.5 mph93%30.24 "HgN/A
3:30 AM36 °FPassing clouds.5 mph93%30.24 "HgN/A
3:00 AM36 °FPassing clouds.7 mph93%30.24 "HgN/A
2:30 AM36 °FPassing clouds.6 mph100%30.24 "HgN/A
2:00 AM37 °FPartly cloudy.6 mph93%30.24 "HgN/A
1:30 AM36 °FPassing clouds.7 mph100%30.21 "HgN/A
1:00 AM37 °FPassing clouds.3 mph93%30.21 "HgN/A
12:30 AM37 °FPartly cloudy.6 mph93%30.21 "HgN/A
12:00 AM37 °FPassing clouds.7 mph93%30.21 "HgN/A
11:30 PM
Tue, Mar 3
39 °FPartly cloudy.6 mph87%30.21 "HgN/A
11:00 PM39 °FPassing clouds.3 mph87%30.18 "HgN/A
10:30 PM39 °FPassing clouds.6 mph93%30.18 "HgN/A
10:00 PM39 °FPartly cloudy.7 mph93%30.18 "HgN/A
9:30 PM41 °FLight rain. Passing clouds.12 mph93%30.18 "Hg6 mi
9:00 PM41 °FLight rain. Passing clouds.14 mph93%30.15 "HgN/A
8:30 PM43 °FLight rain. Partly cloudy.15 mph87%30.15 "HgN/A
8:00 PM45 °FLight rain. Overcast.12 mph71%30.12 "HgN/A
7:30 PM46 °FPassing clouds.9 mph62%30.12 "HgN/A
7:00 PM46 °FClear.15 mph57%30.12 "HgN/A
6:30 PM46 °FClear.15 mph57%30.09 "HgN/A
6:00 PM46 °FScattered clouds.16 mph57%30.09 "HgN/A
Weather by CustomWeather, © 2015

See weather overviewHow to use our weather pages